Погода в Выгоде

Украина / Ивано-Франковская область     48°55′40″N   23°55′09″E
В апреле 2022 года жителям России запретили посещать сайт meteo.paraplan.net по решению Генеральной прокуратуры. Аудитория сайта уменьшилась в 10 раз. Владельцы сайта не видят смысла в поддержке погодного сервера в таких условиях. Сайт будет закрыт в октябре.
темп.,
°C
ветер,
м/с
пор.,
м/с
влажн.,
%
обл.,
%
осадки,
мм/ч
давл.,
гПа
погр.,
м
29 сентября, чт
чт2900:00+9ю2373100 0.0 100553
03:00+10ююв2268100 0.1 100550
06:00+10ю3373100 0.0 100454
09:00+12ююз2376100 0.0 100398
12:00+18ююв2554100 0.0 10031041
15:00+16ююв267196 0.9 1004575
18:00+16ююз1175100 0.1 100416
21:00+12сз349673 1.0 1007133
30 сентября, пт
пт3000:00+10сз1298100 0.1 100996
03:00+9с019896 0.1 101011
06:00+9всв009793 0.0 101184
09:00+11юв129298 0.0 1012149
12:00+16вюв3475100 0.0 1012387
15:00+17ююз3975100 0.7 1012628
18:00+16ююз267866 0.0 1013201
21:00+13ююз2288100 0.0 101428
1 октября, сб
сб100:00+13ююз3385100 0.0 101542
03:00+14юз2483100 0.0 1015120
06:00+15юз31073100 0.0 1015376
09:00+15ююз3976100 0.0 1015464
12:00+18юз4117098 0.1 10151222
15:00+20зюз5115856 0.1 10131391
18:00+18юз37725 0.5 1012346
21:00+14ю2286100 0.7 101226
2 октября, вс
вс200:00+15зюз2281100 0.3 101057
03:00+13ссз2399100 8.2 1010156
06:00+11сз51196100 5.1 1012843
09:00+9сз51193100 6.6 1015819
12:00+10сз4988100 3.3 1016857
15:00+12сз6118261 4.0 10161092
18:00+11сз498483 0.4 1017789
21:00+10зсз498470 0.6 1018681
3 октября, пн
пн300:00+9зсз3985100 0.1 1018580
03:00+9з388298 0.2 1017369
06:00+9зсз5118698 0.9 1014993
09:00+9з6118898 2.4 1014959
12:00+8зсз61187100 1.4 10141074
15:00+9зсз61083100 2.0 10131219
18:00+9зсз7128281 0.6 10131086
21:00+8з61181100 0.8 1013808